Regional Weather Roundup
Issued by NWS

Home | Current Version | Previous Version | Graphics & Text | Print | Product List | Glossary On
Versions: 1 2 3 4 5 6 7 8 9 10 11 12 13 14 15 16 17 18 19 20 21 22 23 24 25 26 27 28 29 30 31 32 33 34 35 36 37 38 39 40 41 42 43 44 45 46 47 48 49 50
000
ASUS43 KMKX 190610
RWRWI

WISCONSIN REGIONAL WEATHER ROUNDUP
NATIONAL WEATHER SERVICE MILWAUKEE/SULLIVAN WI
1200 AM CST FRI JAN 19 2018

NOTE: "FAIR" INDICATES FEW OR NO CLOUDS BELOW 12,000 FEET WITH NO
SIGNIFICANT WEATHER AND/OR OBSTRUCTIONS TO VISIBILITY.

WIZ001-002-006>008-014>016-023>028-190700-
NORTHWEST WISCONSIN

CITY           SKY/WX    TMP DP  RH WIND       PRES   REMARKS
SUPERIOR ARPT  FAIR      24  22  94 SW3       29.68F
6HR MIN TEMP:  23; 6HR MAX TEMP:  33;

ASHLAND        FAIR      27  22  81 S7        29.69F WCI  19
6HR MIN TEMP:  17; 6HR MAX TEMP:  27;

HAYWARD        FAIR      18  14  84 S3        29.70F FOG
6HR MIN TEMP:  17; 6HR MAX TEMP:  28;

SIREN          FAIR      24  20  86 S3        29.70F
6HR MIN TEMP:  19; 6HR MAX TEMP:  27;

CUMBERLAND     FAIR      25  23  93 S6        29.71F WCI  18
RICE LAKE      FAIR      21  20  96 SE3       29.74F
6HR MIN TEMP:  19; 6HR MAX TEMP:  29;

CHETEK         FAIR      19  17  95 SE3       29.75S
6HR MIN TEMP:  19; 6HR MAX TEMP:  28;

LADYSMITH      FAIR      24  21  88 S6        29.76S WCI  17
6HR MIN TEMP:  23; 6HR MAX TEMP:  32;

EAU CLAIRE     FAIR      25  21  85 CALM      29.77S
6HR MIN TEMP:  24; 6HR MAX TEMP:  32;

MENOMONIE      FAIR      26  22  85 SE3       29.77S
6HR MIN TEMP:  22; 6HR MAX TEMP:  33;

NEW RICHMOND   FAIR      25  24  97 S5        29.74S WCI  19
6HR MIN TEMP:  21; 6HR MAX TEMP:  30;

OSCEOLA        FAIR      27  26  99 S8        29.75F WCI  18
6HR MIN TEMP:  23; 6HR MAX TEMP:  28;

$$

WIZ003>005-009-010-017-018-190700-
NORTH CENTRAL WISCONSIN

CITY           SKY/WX    TMP DP  RH WIND       PRES   REMARKS
MANITOWISH WTR FAIR      21  21 100 SW3       29.69F
6HR MIN TEMP:  14; 6HR MAX TEMP:  23;

ARBOR VITAE    FAIR      25  21  87 SW6       29.69F WCI  18
6HR MIN TEMP:  19; 6HR MAX TEMP:  27;

WOODRUFF       FAIR      25  21  87 SW6       29.69F WCI  18
6HR MIN TEMP:  19; 6HR MAX TEMP:  27;

RHINELANDER    FAIR      25  21  85 SW7       29.72S WCI  17
6HR MIN TEMP:  22; 6HR MAX TEMP:  28;

EAGLE RIVER    FAIR      15  15  98 CALM      29.70S
6HR MIN TEMP:  11; 6HR MAX TEMP:  24;

LAND O LAKES   FAIR      19  17  94 CALM      29.70F
6HR MIN TEMP:  17; 6HR MAX TEMP:  25;

PHILLIPS       FAIR      21  20  96 CALM      29.71S
6HR MIN TEMP:  16; 6HR MAX TEMP:  30;

TOMAHAWK       FAIR      24  21  89 CALM      29.73F
6HR MIN TEMP:  21; 6HR MAX TEMP:  30;

MEDFORD        FAIR      24  19  83 SW7       29.74S WCI  16
6HR MIN TEMP:  22; 6HR MAX TEMP:  29;

MERRILL        FAIR      20  18  93 CALM      29.76S
6HR MIN TEMP:  15; 6HR MAX TEMP:  28;

$$

WIZ029-030-035-036-043>047-190700-
CENTRAL WISCONSIN

CITY           SKY/WX    TMP DP  RH WIND       PRES   REMARKS
WAUSAU         FAIR      25  19  78 CALM      29.75F
6HR MIN TEMP:  24; 6HR MAX TEMP:  32;

MOSINEE        FAIR      25  21  86 SW7       29.77F WCI  17
MARSHFIELD     FAIR      26  19  74 SW8       29.76F WCI  18
6HR MIN TEMP:  26; 6HR MAX TEMP:  30;

STEVENS POINT  FAIR      25  19  79 SW6       29.79F WCI  18
6HR MIN TEMP:  25; 6HR MAX TEMP:  31;

WAUPACA        FAIR      26  19  74 S3        29.82R
6HR MIN TEMP:  24; 6HR MAX TEMP:  33;

WAUTOMA        FAIR      23  17  78 CALM      29.83S
6HR MIN TEMP:  22; 6HR MAX TEMP:  30;

WISC RAPIDS    FAIR      24  17  74 SW7       29.81S WCI  16
6HR MIN TEMP:  24; 6HR MAX TEMP:  30;

CAMP DOUGLAS   FAIR      27  19  72 SW7       29.81S WCI  20
6HR MIN TEMP:  27; 6HR MAX TEMP:  32;

$$

WIZ011>013-019>022-031-037>040-048>050-190700-
NORTHEAST WISCONSIN

CITY           SKY/WX    TMP DP  RH WIND       PRES   REMARKS
ANTIGO         FAIR      21  18  89 W6        29.74S WCI  13
6HR MIN TEMP:  16; 6HR MAX TEMP:  27;

SHAWANO        FAIR      27  20  76 CALM      29.79S
6HR MIN TEMP:  27; 6HR MAX TEMP:  34;

OCONTO         FAIR      26  19  74 SW7       29.79S WCI  18
6HR MIN TEMP:  26; 6HR MAX TEMP:  30;

STURGEON BAY   FAIR      28  20  71 SW14      29.79S WCI  17
6HR MIN TEMP:  25; 6HR MAX TEMP:  28;

GREEN BAY      FAIR      23  16  74 SW5       29.81S WCI  17
6HR MIN TEMP:  21; 6HR MAX TEMP:  28;

MANITOWOC      FAIR      28  20  71 W13       29.82F WCI  17
6HR MIN TEMP:  28; 6HR MAX TEMP:  30;

APPLETON       FAIR      27  18  69 SW9       29.79S WCI  17
CLINTONVILLE   FAIR      23  18  80 SW3       29.80S
OSHKOSH        FAIR      23  17  78 SW7       29.82F WCI  15
6HR MIN TEMP:  23; 6HR MAX TEMP:  28;

$$

WIZ032>034-041-042-053>061-190700-
SOUTHWEST WISCONSIN

CITY           SKY/WX    TMP DP  RH WIND       PRES   REMARKS
LA CROSSE      FAIR      28  20  71 S10       29.83F WCI  19
6HR MIN TEMP:  27; 6HR MAX TEMP:  33;

SPARTA         FAIR      28  21  75 CALM      29.83F
6HR MIN TEMP:  28; 6HR MAX TEMP:  32;

VIROQUA        FAIR      26  21  81 SW9       29.82F WCI  17
6HR MIN TEMP:  26; 6HR MAX TEMP:  29;

BOSCOBEL       FAIR      24  18  77 SW3       29.87F
6HR MIN TEMP:  23; 6HR MAX TEMP:  32;

PRAIRIE DU CHI FAIR      30  19  64 SW6       29.88F WCI  24
6HR MIN TEMP:  29; 6HR MAX TEMP:  32;

PLATTEVILLE    FAIR      24  20  85 SW8       29.89F WCI  15
6HR MIN TEMP:  23; 6HR MAX TEMP:  27;

$$

WIZ056-057-062-063-064-067-068-190700-
SOUTH CENTRAL WISCONSIN

CITY           SKY/WX    TMP DP  RH WIND       PRES   REMARKS
REEDSBURG      FAIR      28  19  70 SW8       29.84S WCI  20
6HR MIN TEMP:  28; 6HR MAX TEMP:  30;

BARABOO/DELLS  FAIR      28  19  70 SW13G20   29.82F WCI  17
6HR MIN TEMP:  28; 6HR MAX TEMP:  30;

LONE ROCK      FAIR      20  16  84 W3        29.87F
6HR MIN TEMP:  15; 6HR MAX TEMP:  31;

MINERAL POINT  FAIR      28  23  80 S8        29.86F WCI  20
MADISON        FAIR      28  19  69 VRB5      29.86F WCI  23
6HR MIN TEMP:  27; 6HR MAX TEMP:  30;

MIDDLETON      FAIR      29  21  71 SW9G16    29.86F WCI  21
6HR MIN TEMP:  28; 6HR MAX TEMP:  32;

WATERTOWN      NOT AVBL
MONROE         FAIR      28  21  74 SW22      29.87F WCI  15
JANESVILLE     FAIR      28  19  69 SW12      29.90F WCI  18
$$

WIZ051-052-058>065-066-070>072-190700-
SOUTHEAST WISCONSIN

CITY           SKY/WX    TMP DP  RH WIND       PRES   REMARKS
MILWAUKEE      FAIR      31  20  63 SW12      29.86F WCI  22
6HR MIN TEMP:  29; 6HR MAX TEMP:  31;

WAUKESHA       FAIR      28  19  69 SW12G17   29.87F WCI  18
MILWAUKEE/TIMM FAIR      30  19  64 SW15G25   29.86F WCI  19
RACINE         FAIR      29  19  66 SW15G24   29.89F WCI  18
6HR MIN TEMP:  29; 6HR MAX TEMP:  30;

BURLINGTON     FAIR      28  19  69 SW13      29.89F WCI  17
6HR MIN TEMP:  26; 6HR MAX TEMP:  28;

KENOSHA        FAIR      30  19  63 SW14G26   29.89F WCI  19
6HR MIN TEMP:  29; 6HR MAX TEMP:  31;

FOND DU LAC    FAIR      26  17  68 SW10      29.82F WCI  16
6HR MIN TEMP:  26; 6HR MAX TEMP:  29;

SHEBOYGAN      FAIR      27  19  72 SW10      29.81F WCI  17
6HR MIN TEMP:  27; 6HR MAX TEMP:  29;

WEST BEND      FAIR      28  19  69 SW15      29.83F WCI  17
JUNEAU         FAIR      22  17  81 S9        29.85F WCI  12
6HR MIN TEMP:  22; 6HR MAX TEMP:  25;

$$

LSZ147-162-190700-
LAKE SUPERIOR

STATION/POSITION TIME  TEMP    WIND        PRES    WAVE
                       AIR SEA DIR/SP/G            HT/PER
                 (UTC) (F)     (DEG/KT/KT) (MB)    (FT/S)
DEVILS ISLAND    0600   32     200/  5/  6 1005.6F
SAXON HARBOR     0540   25     190/  5/  8 1005.4F
$$

LMZ867-665-643>646-190700-
LAKE MICHIGAN

STATION/POSITION TIME  TEMP    WIND        PRES    WAVE
                       AIR SEA DIR/SP/G            HT/PER
                 (UTC) (F)     (DEG/KT/KT) (MB)    (FT/S)
NORTHPORT PIER   0556



USA.gov is the U.S. government's official web portal to all federal, state and local government web resources and services.